Hourly Weather Al-Jahra

Today, 8 March, Monday

Time Temperature Precipitation Wind Pressure Humidity
00:00 +19°C° 0 mm 3 mps 755 mmHg 25%
01:00 +18°C° 0 mm 3 mps 755 mmHg 25%
02:00 +18°C° 0 mm 2 mps 755 mmHg 26%
03:00 +18°C° 0 mm 2 mps 754 mmHg 28%
04:00 +17°C° 0 mm 2 mps 755 mmHg 29%
05:00 +18°C° 0 mm 1 mps 755 mmHg 30%
06:00 +16°C° 0 mm 1 mps 755 mmHg 32%
07:00 +19°C° 0 mm 1 mps 755 mmHg 29%
08:00 +20°C° 0 mm 1 mps 755 mmHg 26%
09:00 +22°C° 0 mm 1 mps 756 mmHg 24%
10:00 +23°C° 0 mm 2 mps 755 mmHg 22%
11:00 +24°C° 0 mm 2 mps 755 mmHg 20%
12:00 +25°C° 0 mm 3 mps 755 mmHg 18%
13:00 +26°C° 0 mm 3 mps 754 mmHg 18%
14:00 +26°C° 0 mm 3 mps 753 mmHg 17%
15:00 +27°C° 0 mm 4 mps 752 mmHg 18%
16:00 +26°C° 0 mm 4 mps 752 mmHg 21%
17:00 +25°C° 0 mm 5 mps 753 mmHg 24%
18:00 +23°C° 0 mm 5 mps 753 mmHg 27%
19:00 +22°C° 0 mm 4 mps 753 mmHg 30%
20:00 +22°C° 0 mm 4 mps 753 mmHg 32%
21:00 +21°C° 0 mm 3 mps 753 mmHg 35%
22:00 +20°C° 0 mm 3 mps 753 mmHg 36%
23:00 +20°C° 0 mm 2 mps 753 mmHg 37%

Tomorrow, 9 March, Tuesday

Time Temperature Precipitation Wind Pressure Humidity
00:00 +20°C° 0 mm 1 mps 753 mmHg 39%
01:00 +20°C° 0 mm 1 mps 753 mmHg 39%
02:00 +20°C° 0 mm 1 mps 753 mmHg 39%
03:00 +19°C° 0 mm 1 mps 753 mmHg 39%
04:00 +19°C° 0 mm 1 mps 753 mmHg 40%
05:00 +19°C° 0 mm 1 mps 754 mmHg 40%
06:00 +18°C° 0 mm 1 mps 754 mmHg 40%
07:00 +20°C° 0 mm 1 mps 755 mmHg 36%
08:00 +22°C° 0 mm 1 mps 755 mmHg 32%
09:00 +23°C° 0 mm 1 mps 756 mmHg 28%
10:00 +25°C° 0 mm 2 mps 756 mmHg 26%
11:00 +26°C° 0 mm 3 mps 756 mmHg 23%
12:00 +27°C° 0 mm 3 mps 755 mmHg 21%
13:00 +28°C° 0 mm 4 mps 755 mmHg 19%
14:00 +29°C° 0 mm 4 mps 755 mmHg 17%
15:00 +29°C° 0 mm 4 mps 754 mmHg 15%
16:00 +28°C° 0 mm 4 mps 754 mmHg 16%
17:00 +28°C° 0 mm 4 mps 755 mmHg 16%
18:00 +27°C° 0 mm 4 mps 755 mmHg 16%
19:00 +26°C° 0 mm 4 mps 755 mmHg 18%
20:00 +25°C° 0 mm 4 mps 756 mmHg 19%
21:00 +24°C° 0 mm 3 mps 756 mmHg 20%
22:00 +23°C° 0 mm 4 mps 756 mmHg 21%
23:00 +22°C° 0 mm 4 mps 756 mmHg 23%

Day after tomorrow, 10 March, Wednesday

Time Temperature Precipitation Wind Pressure Humidity
00:00 +21°C° 0 mm 4 mps 756 mmHg 24%
01:00 +21°C° 0 mm 4 mps 756 mmHg 25%
02:00 +20°C° 0 mm 3 mps 756 mmHg 27%
03:00 +20°C° 0 mm 3 mps 756 mmHg 28%
04:00 +19°C° 0 mm 2 mps 756 mmHg 30%
05:00 +20°C° 0 mm 1 mps 756 mmHg 31%
06:00 +19°C° 0 mm 1 mps 757 mmHg 33%
07:00 +20°C° 0 mm 1 mps 757 mmHg 30%
08:00 +22°C° 0 mm 1 mps 758 mmHg 27%
09:00 +23°C° 0 mm 1 mps 758 mmHg 24%
10:00 +25°C° 0 mm 1 mps 758 mmHg 22%
11:00 +26°C° 0 mm 2 mps 758 mmHg 20%
12:00 +27°C° 0 mm 2 mps 757 mmHg 19%
13:00 +28°C° 0 mm 2 mps 757 mmHg 18%
14:00 +28°C° 0 mm 3 mps 757 mmHg 17%
15:00 +29°C° 0 mm 3 mps 756 mmHg 16%
16:00 +28°C° 0 mm 2 mps 756 mmHg 17%
17:00 +28°C° 0 mm 2 mps 756 mmHg 18%
18:00 +27°C° 0 mm 1 mps 756 mmHg 19%
19:00 +26°C° 0 mm 1 mps 756 mmHg 20%
20:00 +26°C° 0 mm 1 mps 756 mmHg 22%
21:00 +25°C° 0 mm 1 mps 757 mmHg 23%
22:00 +24°C° 0 mm 1 mps 757 mmHg 24%
23:00 +23°C° 0 mm 1 mps 756 mmHg 26%

11 March, Thursday

Time Temperature Precipitation Wind Pressure Humidity
00:00 +21°C° 0 mm 0 mps 756 mmHg 27%
01:00 +20°C° 0 mm 0 mps 756 mmHg 28%
02:00 +22°C° 0 mm 1 mps 755 mmHg 28%
03:00 +22°C° 0 mm 1 mps 755 mmHg 28%
04:00 +22°C° 0 mm 1 mps 755 mmHg 28%
05:00 +21°C° 0 mm 2 mps 755 mmHg 28%
06:00 +20°C° 0 mm 2 mps 755 mmHg 28%
07:00 +22°C° 0 mm 3 mps 755 mmHg 26%
08:00 +23°C° 0 mm 4 mps 755 mmHg 23%
09:00 +26°C° 0 mm 5 mps 755 mmHg 21%
10:00 +28°C° 0 mm 5 mps 755 mmHg 19%
11:00 +29°C° 0 mm 6 mps 754 mmHg 17%
12:00 +32°C° 0 mm 6 mps 754 mmHg 15%
13:00 +33°C° 0 mm 6 mps 753 mmHg 14%
14:00 +34°C° 0 mm 6 mps 752 mmHg 14%
15:00 +34°C° 0 mm 6 mps 751 mmHg 13%
16:00 +33°C° 0 mm 6 mps 751 mmHg 15%
17:00 +32°C° 0 mm 5 mps 751 mmHg 17%
18:00 +30°C° 0 mm 4 mps 751 mmHg 19%
19:00 +29°C° 0 mm 4 mps 750 mmHg 21%
20:00 +28°C° 0 mm 4 mps 750 mmHg 23%
21:00 +27°C° 0 mm 5 mps 750 mmHg 25%
22:00 +27°C° 0 mm 5 mps 750 mmHg 26%
23:00 +26°C° 0 mm 6 mps 750 mmHg 27%

12 March, Friday

Time Temperature Precipitation Wind Pressure Humidity
00:00 +26°C° 0 mm 6 mps 750 mmHg 28%
01:00 +26°C° 0 mm 5 mps 749 mmHg 27%
02:00 +26°C° 0 mm 5 mps 749 mmHg 26%
03:00 +26°C° 0 mm 4 mps 748 mmHg 25%
04:00 +25°C° 0 mm 4 mps 748 mmHg 25%
05:00 +25°C° 0 mm 4 mps 748 mmHg 25%
06:00 +25°C° 0 mm 4 mps 748 mmHg 26%
07:00 +27°C° 0 mm 4 mps 748 mmHg 23%
08:00 +28°C° 0 mm 4 mps 749 mmHg 20%
09:00 +30°C° 0 mm 4 mps 749 mmHg 18%
10:00 +32°C° 0 mm 4 mps 748 mmHg 17%
11:00 +33°C° 0 mm 4 mps 748 mmHg 16%
12:00 +34°C° 0 mm 3 mps 747 mmHg 15%
13:00 +34°C° 0 mm 4 mps 747 mmHg 16%
14:00 +34°C° 0 mm 4 mps 746 mmHg 16%
15:00 +34°C° 0 mm 4 mps 746 mmHg 16%
16:00 +33°C° 0 mm 4 mps 746 mmHg 19%
17:00 +30°C° 0 mm 4 mps 746 mmHg 21%
18:00 +29°C° 0 mm 4 mps 747 mmHg 24%
19:00 +27°C° 0 mm 7 mps 748 mmHg 33%
20:00 +23°C° 0 mm 10 mps 749 mmHg 42%
21:00 +19°C° 0 mm 13 mps 750 mmHg 51%
22:00 +19°C° 0 mm 11 mps 751 mmHg 49%
23:00 +19°C° 0 mm 9 mps 751 mmHg 47%

13 March, Saturday

Time Temperature Precipitation Wind Pressure Humidity
00:00 +20°C° 0 mm 8 mps 752 mmHg 44%
01:00 +20°C° 0 mm 8 mps 752 mmHg 43%
02:00 +18°C° 0 mm 8 mps 753 mmHg 42%
03:00 +18°C° 0 mm 8 mps 753 mmHg 41%
04:00 +17°C° 0 mm 8 mps 754 mmHg 37%
05:00 +16°C° 0 mm 8 mps 755 mmHg 34%
06:00 +15°C° 0 mm 8 mps 756 mmHg 30%
07:00 +15°C° 0 mm 8 mps 757 mmHg 25%
08:00 +15°C° 0 mm 8 mps 758 mmHg 21%
09:00 +13°C° 0 mm 8 mps 758 mmHg 16%
10:00 +16°C° 0 mm 8 mps 758 mmHg 15%
11:00 +17°C° 0 mm 8 mps 758 mmHg 14%
12:00 +18°C° 0 mm 8 mps 758 mmHg 12%
13:00 +18°C° 0 mm 8 mps 758 mmHg 12%
14:00 +20°C° 0 mm 8 mps 758 mmHg 11%
15:00 +20°C° 0 mm 8 mps 757 mmHg 11%
16:00 +18°C° 0 mm 7 mps 757 mmHg 12%
17:00 +18°C° 0 mm 7 mps 757 mmHg 13%
18:00 +17°C° 0 mm 6 mps 757 mmHg 14%
19:00 +17°C° 0 mm 6 mps 758 mmHg 15%
20:00 +16°C° 0 mm 5 mps 758 mmHg 17%
21:00 +15°C° 0 mm 5 mps 759 mmHg 19%
22:00 +15°C° 0 mm 5 mps 759 mmHg 20%
23:00 +15°C° 0 mm 5 mps 759 mmHg 22%
Show more